Regional Weather Roundup
Issued by NWS Upton, NY

Current Version | Previous Version | Text Only | Print | Product List | Glossary On
Versions: 1 2 3 4 5 6 7 8 9 10 11 12 13 14 15 16 17 18 19 20 21 22 23 24 25 26 27 28 29 30 31 32 33 34 35 36 37 38 39 40 41 42 43 44 45 46 47 48 49 50
000 ASUS41 KOKX 241905 RWROKX REGIONAL WEATHER ROUNDUP NATIONAL WEATHER SERVICE NEW YORK NY 200 PM EST SAT JAN 24 2015 NOTE: "FAIR" INDICATES FEW OR NO CLOUDS BELOW 12,000 FEET WITH NO SIGNIFICANT WEATHER AND/OR OBSTRUCTIONS TO VISIBILITY. NYZ071-072-176-178-NJZ106-104-242000- NEW YORK CITY METRO AREA CITY SKY/WX TMP DP RH WIND PRES REMARKS CENTRAL PARK CLOUDY 36 32 85 N13G20 29.33F FOG WCI 27 LAGUARDIA APRT CLOUDY 37 32 82 N17 29.30F HAZE WCI 27 KENNEDY INTL CLOUDY 36 33 89 N16 29.30F WCI 26 NEWARK/LIBERTY CLOUDY 37 34 89 N12 29.32F WCI 29 BRNX BOT. GARD N/A 36 32 87 N7 29.30F WCI 30 TETERBORO LGT RAIN 37 33 85 NW8 29.31S FOG WCI 31 $$ NYZ177-179-078>081-242000- LONG ISLAND NEW YORK CITY SKY/WX TMP DP RH WIND PRES REMARKS FARMINGDALE CLOUDY 36 34 92 N13 29.27F FOG WCI 27 ISLIP DRIZZLE 35 33 92 N10 29.25F FOG WCI 27 SHIRLEY LGT RAIN 35 33 92 N13 29.28F FOG WCI 26 WESTHAMPTON LGT RAIN 36 33 89 N12 29.28F FOG WCI 28 MONTAUK POINT N/A 38 36 92 N14G23 29.27F WCI 30 $$ NYZ052-065-067-242000- HUDSON VALLEY CITY SKY/WX TMP DP RH WIND PRES REMARKS WHITE PLAINS CLOUDY 35 32 88 NW13 29.28F WCI 26 NEWBURGH CLOUDY 34 32 93 N7 29.34F FOG WCI 28 MONTGOMERY CLOUDY 35 31 85 N5 29.33F FOG WCI 31 POUGHKEEPSIE CLOUDY 35 31 85 N3 29.34F FOG ALBANY LGT SNOW 32 27 81 NW6 29.37F WCI 26 $$ NJZ001-105-106-008-010-013-015-019>022-104-242000- NEW JERSEY CITY SKY/WX TMP DP RH WIND PRES REMARKS NEWARK/LIBERTY CLOUDY 37 34 89 N12 29.32F WCI 29 TETERBORO LGT RAIN 37 33 85 NW8 29.31S FOG WCI 31 CALDWELL CLOUDY 37 31 78 N6 29.33F WCI 32 MORRISTOWN CLOUDY 39 34 81 N12 29.34F WCI 32 SOMERVILLE CLOUDY 38 32 79 NW9 29.35R WCI 31 SUSSEX CLOUDY 35 32 88 CALM 29.34F FOG ANDOVER N/A 36 31 82 NW5 29.35F WCI 32 TRENTON CLOUDY 36 32 85 NW8 29.34F WCI 30 MILLVILLE CLOUDY 38 35 89 NW9 29.32F WCI 31 ATLANTIC CITY CLOUDY 37 35 92 N12 29.29F WCI 29 WRIGHTSTOWN CLOUDY 35 35 99 NW9 29.31F WCI 28 TOMS RIVER CLOUDY 36 34 93 NW13 29.32S WCI 27 BELMAR CLOUDY 36 30 80 NW14 29.31R WCI 27 $$ PAZ047>061-062-071-242000- EASTERN PENNSYLVANIA CITY SKY/WX TMP DP RH WIND PRES REMARKS PHILADELPHIA LGT RAIN 37 34 89 N14 29.35F WCI 28 ALLENTOWN CLOUDY 38 31 76 NW10 29.38S WCI 31 SCRANTON CLOUDY 33 29 85 W5 29.37S FOG WCI 29 $$ CTZ002-004>006-009-010-012-RIZ004-006-007-MAZ004-011-015-242000- SOUTHERN NEW ENGLAND IN CT CITY SKY/WX TMP DP RH WIND PRES REMARKS BRADLEY INTL LGT SNOW 33 29 85 N10 29.34F FOG WCI 25 HARTFORD MIX PCPN 33 30 88 N13 29.32F VSB 1 WCI 24 DANBURY CLOUDY 36 31 82 N7 29.31F WCI 30 WTRBRY/OXFORD CLOUDY 34 27 75 NE13 29.26F FOG WCI 25 BRIDGEPORT MIX PCPN 36 34 92 N10 29.28F FOG WCI 28 MERIDEN MIX PCPN 34 31 88 N7 29.31S FOG WCI 28 NEW HAVEN CLOUDY 34 32 92 N14G21 29.28F FOG WCI 25 CHESTER LGT RAIN 34 34 100 N9G16 29.28R WCI 26 GROTON LGT RAIN 34 33 96 N14 29.28R FOG WCI 25 WILLIMANTIC LGT RAIN 35 32 88 N8 29.31F FOG WCI 29 IN RI CITY SKY/WX TMP DP RH WIND PRES REMARKS PROVIDENCE LGT RAIN 34 32 92 N15G25 29.28F VSB 1 WCI 24 BLOCK ISLAND CLOUDY 36 32 87 N15G26 29.23R WCI 26 WESTERLY LGT RAIN 35 34 96 N14 29.25F FOG WCI 26 IN MA CITY SKY/WX TMP DP RH WIND PRES REMARKS BOSTON LGT RAIN 33 31 92 N13 29.32F FOG WCI 24 WORCESTER LGT SNOW 30 29 96 N10 29.27F FOG WCI 21 WESTFIELD CLOUDY 33 29 85 N9G18 29.32F FOG WCI 25 PROVINCETOWN CLOUDY 37 36 93 NE25 29.24F WCI 26 NANTUCKET CLOUDY 44 42 93 NE20 29.06F FOG $$ ANZ330-335-338-340-345-350-353-355-242000- COASTAL MARINE OBSERVATIONS STATION/POSITION TIME SKY/WX TEMP WIND PRES VSBY WAVE AIR SEA DIR/SP/G HT/PER (UTC) (F) (DEG/KT/KT) (MB) (MI) (FT/S) NY HARB ENTRANCE 1900 37 42 360/ 17/ 21 990.6 5/ 6 4S FIRE IS 1900 39 N/A 4/ 6 20S FIRE ISLAND 1800 41 991.2 7/ 6 23SW MTP 1900 N/A 8/ 6 HUDSON CANYON NOT AVBL EXECUTION ROCKS 1900 36 35 340/ 10/ 14 N/A WESTERN LI SOUND 1900 36 10/ 10/ 14 N/A 1/ 3 CENTRAL LI SOUND 1800 35 37 360/ 12/ 16 N/A 2/ 3 EASTERN LI SOUND NOT AVBL ROBBINS REEF 1900 36 350/ 14/ 18 991.3 $$ >>>>>>>>>>>>>>>>>>>>>>>>>>>> KEY <<<<<<<<<<<<<<<<<<<<<<<<<<< > < > SKY/WX - SKY CONDITION/PRESENT WEATHER < > TMP - TEMPERATURE IN FAHRENHEIT < > DP - DEWPOINT IN FAHRENHEIT < > RH - RELATIVE HUMIDITY IN PERCENT < > WIND - DIRECTION AND SPEED IN MPH < > PRES - MEAN SEA LEVEL PRESSURE IN INCHES OF HG < > WCI - WIND CHILL INDEX < > VSB - VISIBILITY IN MILES < > HX - HEAT INDEX < > TC - TEMPERATURE IN CELSIUS < > VRB - VARIABLE WIND DIRECTION < > < >>>>>>>>>>>>>>>>>>>>>>>>>>>> KEY <<<<<<<<<<<<<<<<<<<<<<<<<<<

USA.gov is the U.S. government's official web portal to all federal, state and local government web resources and services.